[[{"header":{"parameterUnit":"m.s-1","parameterCategory":1,"la1":30.2991,"la2":30.254,"lo1":-89.0895,"lo2":-89.0444,"dy":0.0017,"dx":0.0017,"nx":28,"ny":28,"refTime":"2023-08-26T09:00:00:Z","depth":0,"parameterNumber":2,"parameterNumberName":"U-component_of_WINDS"},"data":[0,0,0,0,0,0,0,0,0,0,0,0,0,0,0,0,0,0,0,0,0,0,0,0,0,0,0,0,0,0,0,0,0,0,0,0,0,0,0,0,0,0,0,0,0,0,0,0,0,0,0,0,0,0,0,0,0,0,-0.9603,-0.9603,0,-0.9661,-0.9662,-0.9663,-0.9755,-0.9757,-0.9758,-0.976,-0.9816,-0.9816,-0.9816,0,0,0,0,0,0,0,0,0,0,0,0,0,-0.9567,-0.9567,-0.9603,-0.9603,-0.9604,-0.9661,-0.9662,-0.9663,-0.9755,-0.9757,-0.9759,-0.9761,-0.9816,-0.9816,-0.9816,0,0,0,0,0,0,0,0,0,0,0,0,0,-0.9599,-0.9567,-0.9602,-0.9657,-0.9662,-0.9661,-0.9662,-0.9663,-0.9754,-0.9757,-0.9759,-0.9762,-0.9816,-0.9816,-0.9816,-0.9765,0,0,-0.9815,-0.9815,0,0,0,0,0,0,0,0,-0.9598,-0.9601,-0.9648,-0.9653,-0.9659,-0.9704,-0.967,-0.9697,-0.9754,-0.9719,-0.976,-0.9763,-0.9776,-0.9779,-0.9785,-0.9767,-0.977,-0.9815,-0.9815,-0.9815,-0.9815,0,0,0,0,0,0,0,-0.9595,-0.9599,-0.9626,-0.9649,-0.9655,-0.9677,-0.9685,-0.9676,-0.9733,-0.9722,-0.9729,-0.9735,-0.978,-0.9785,-0.9787,-0.9771,-0.9815,-0.9815,-0.9815,-0.9815,-0.9715,-0.9712,0,0,0,0,0,0,-0.9585,-0.9596,-0.9624,-0.9627,-0.9634,-0.9676,-0.9684,-0.9687,-0.9733,-0.9743,-0.9733,-0.9739,-0.9784,-0.9787,-0.9789,-0.9733,-0.9815,-0.9815,-0.9815,-0.9717,-0.9714,-0.9711,0,0,0,0,0,0,-0.9584,-0.9587,-0.9621,-0.9614,-0.962,-0.9674,-0.9676,-0.9686,-0.9692,-0.9741,-0.9751,-0.9728,-0.9786,-0.9789,-0.977,-0.9736,-0.9815,-0.9815,-0.972,-0.9716,-0.9713,-0.9618,0,0,0,0,0,0,-0.9583,-0.9586,-0.9568,-0.9613,-0.962,-0.9602,-0.9674,-0.9686,-0.9692,-0.97,-0.9739,-0.9748,-0.9788,-0.977,-0.977,-0.9737,-0.9815,-0.9723,-0.9718,-0.9714,-0.9625,-0.9612,-0.9601,0,0,0,0,0,-0.9581,-0.9538,-0.9566,-0.9569,-0.9598,-0.96,-0.9604,-0.9653,-0.9689,-0.967,-0.9702,-0.9746,-0.974,-0.9767,-0.9768,-0.9734,-0.9726,-0.972,-0.9714,-0.963,-0.9614,-0.9601,0,0,0,0,0,0,-0.9486,-0.9545,-0.9577,-0.9547,-0.9568,-0.9616,-0.9594,-0.9634,-0.9644,-0.9652,-0.971,-0.9718,-0.9692,-0.9712,-0.9741,-0.9688,-0.974,-0.9734,-0.9676,-0.9661,-0.9649,-0.9644,-0.9815,0,0,0,0,0,-0.9461,-0.9459,-0.951,-0.9479,-0.9488,-0.9539,-0.9542,-0.9577,-0.9601,-0.961,-0.964,-0.966,-0.9663,-0.9663,-0.9668,-0.9629,-0.9638,-0.9606,-0.9594,-0.9584,-0.9577,-0.9558,-0.9544,-0.9692,-0.9692,-0.9692,0,0,-0.941,-0.9443,-0.9437,-0.9461,-0.9481,-0.9476,-0.9546,-0.9538,-0.9534,-0.9608,-0.9593,-0.9616,-0.9642,-0.9613,-0.9601,-0.9628,-0.9539,-0.9576,-0.9568,-0.9567,-0.955,-0.9536,-0.9524,-0.9688,-0.9689,-0.9689,0,0,-0.9315,-0.934,-0.9316,-0.9336,-0.9367,-0.9401,-0.9396,-0.9438,-0.9456,-0.9442,-0.9498,-0.9494,-0.9497,-0.9514,-0.9523,-0.9435,-0.9476,-0.9435,-0.9371,-0.9352,-0.934,-0.933,-0.9298,-0.9286,-0.9429,-0.9429,-0.9429,0,-0.9247,-0.9244,-0.9299,-0.9288,-0.9296,-0.9365,-0.9341,-0.9357,-0.9387,-0.9391,-0.9422,-0.9428,-0.945,-0.9426,-0.9405,-0.941,-0.9404,-0.9431,-0.9338,-0.9328,-0.9319,-0.929,-0.9278,-0.9424,-0.9424,-0.9425,-0.9425,0,-0.9159,-0.9155,-0.9133,-0.9162,-0.9168,-0.915,-0.9202,-0.9202,-0.9237,-0.9268,-0.9252,-0.9282,-0.9295,-0.9292,-0.9326,-0.9272,-0.9288,-0.9327,-0.938,-0.9299,-0.9272,-0.9261,-0.9416,-0.9418,-0.942,-0.9421,0,0,-0.9003,-0.9065,-0.9055,-0.9069,-0.9109,-0.9107,-0.9093,-0.9107,-0.9105,-0.9124,-0.9112,-0.9114,-0.9151,-0.9161,-0.9198,-0.9181,-0.9109,-0.9222,-0.9224,-0.9199,-0.9051,-0.902,-0.9006,-0.9137,-0.9135,-0.9134,-0.9049,0,-0.8915,-0.8895,-0.8945,-0.8912,-0.8909,-0.8975,-0.8963,-0.8985,-0.9014,-0.9015,-0.9047,-0.9047,-0.9096,-0.9102,-0.9089,-0.912,-0.908,-0.9128,-0.9126,-0.9125,-0.9116,-0.8992,-0.896,-0.8878,-0.9038,-0.9037,-0.9035,0,-0.8809,-0.8824,-0.8791,-0.8834,-0.8835,-0.8823,-0.884,-0.8841,-0.8867,-0.889,-0.8901,-0.8945,-0.8933,-0.8985,-0.8969,-0.9001,-0.9003,-0.9019,-0.9017,-0.9017,-0.9074,-0.8988,-0.8853,-0.884,-0.9019,-0.9021,-0.9022,0,-0.8698,-0.871,-0.8692,-0.8702,-0.8752,-0.8742,-0.8762,-0.8792,-0.8797,-0.8812,-0.8816,-0.8828,-0.8834,-0.8842,-0.8888,-0.8922,-0.8866,-0.8922,-0.8883,-0.8882,-0.8867,-0.8867,-0.8729,-0.887,-0.8871,-0.8871,-0.8871,0,-0.8593,-0.857,-0.8643,-0.8631,-0.8608,-0.8665,-0.864,-0.8666,-0.8692,-0.8687,-0.8745,-0.8738,-0.8799,-0.8799,-0.8834,-0.8815,-0.8818,-0.8835,-0.8844,-0.8829,-0.8826,-0.883,-0.8836,-0.8868,-0.8868,-0.8869,-0.8869,0,-0.8464,-0.8512,-0.8497,-0.8546,-0.8557,-0.8537,-0.8579,-0.857,-0.8604,-0.8596,-0.8597,-0.8649,-0.8652,-0.8699,-0.8711,-0.8735,-0.8701,-0.8722,-0.8692,-0.8698,-0.8656,-0.8659,-0.8514,-0.8498,-0.8651,-0.8649,-0.8648,0,-0.8393,-0.8377,-0.8425,-0.8427,-0.8444,-0.8445,-0.8452,-0.8508,-0.8512,-0.8542,-0.8529,-0.8538,-0.8547,-0.8548,-0.8586,-0.8596,-0.8617,-0.8565,-0.8618,-0.8603,-0.8615,-0.8614,-0.8613,-0.8553,-0.8551,-0.855,-0.8548,0,-0.8263,-0.8288,-0.8295,-0.8311,-0.8318,-0.8333,-0.8351,-0.8349,-0.8411,-0.8412,-0.8417,-0.8424,-0.8438,-0.8444,-0.8462,-0.8481,-0.8524,-0.8532,-0.8523,-0.8507,-0.849,-0.8497,-0.866,-0.8534,-0.8536,-0.8537,-0.8538,-0.8538,-0.816,-0.8149,-0.8182,-0.8188,-0.8209,-0.8225,-0.8219,-0.8253,-0.8258,-0.8275,-0.8308,-0.8307,-0.8335,-0.8363,-0.8379,-0.8379,-0.8405,-0.8392,-0.8389,-0.8384,-0.8376,-0.8491,-0.8382,-0.8382,-0.8383,-0.8383,-0.8384,0,-0.8032,-0.8057,-0.8062,-0.8087,-0.8092,-0.8136,-0.8158,-0.8159,-0.8159,-0.8182,-0.8191,-0.8196,-0.8203,-0.8242,-0.8254,-0.8246,-0.8266,-0.8247,-0.8247,-0.8251,-0.8352,-0.8358,-0.823,-0.823,-0.823,-0.823,-0.823,-0.8231,-0.7965,-0.795,-0.7978,-0.7973,-0.7998,-0.7999,-0.8008,-0.8023,-0.8043,-0.8046,-0.8053,-0.808,-0.8109,-0.8124,-0.8132,-0.8143,-0.8144,-0.8118,-0.8136,-0.8229,-0.8244,-0.8258,-0.8264,-0.8118,-0.8118,-0.8035,-0.8034,-0.8033]},{"header":{"parameterUnit":"m.s-1","parameterCategory":1,"la1":30.2991,"la2":30.254,"lo1":-89.0895,"lo2":-89.0444,"dy":0.0017,"dx":0.0017,"nx":28,"ny":28,"refTime":"2023-08-26T09:00:00:Z","depth":0,"parameterNumber":3,"parameterNumberName":"V-component_of_WINDS"},"data":[0,0,0,0,0,0,0,0,0,0,0,0,0,0,0,0,0,0,0,0,0,0,0,0,0,0,0,0,0,0,0,0,0,0,0,0,0,0,0,0,0,0,0,0,0,0,0,0,0,0,0,0,0,0,0,0,0,0,0.0529,0.0529,0,0.0567,0.0567,0.0568,0.0633,0.0634,0.0635,0.0637,0.0672,0.0672,0.0672,0,0,0,0,0,0,0,0,0,0,0,0,0,0.0509,0.0509,0.0529,0.0529,0.0529,0.0567,0.0567,0.0568,0.0633,0.0634,0.0636,0.0637,0.0672,0.0672,0.0672,0,0,0,0,0,0,0,0,0,0,0,0,0,0.0529,0.0509,0.0528,0.0566,0.057,0.0567,0.0567,0.0568,0.0632,0.0634,0.0636,0.0638,0.0672,0.0672,0.0672,0.0633,0,0,0.0671,0.0671,0,0,0,0,0,0,0,0,0.0528,0.053,0.056,0.0564,0.0568,0.0597,0.0573,0.059,0.0632,0.0609,0.0637,0.0639,0.0645,0.0648,0.0651,0.0635,0.0636,0.0671,0.0671,0.0671,0.067,0,0,0,0,0,0,0,0.0526,0.0528,0.0544,0.0561,0.0565,0.0581,0.0586,0.0577,0.0616,0.0611,0.0616,0.0619,0.0648,0.0651,0.0652,0.0637,0.0671,0.0671,0.067,0.067,0.059,0.0588,0,0,0,0,0,0,0.052,0.0527,0.0542,0.0545,0.0552,0.0579,0.0585,0.0586,0.0616,0.0623,0.0618,0.0622,0.065,0.0652,0.0653,0.0609,0.0671,0.067,0.067,0.0592,0.059,0.0588,0,0,0,0,0,0,0.0519,0.0521,0.0541,0.0537,0.0541,0.0578,0.0578,0.0586,0.0588,0.0622,0.0629,0.0614,0.0652,0.0654,0.0638,0.0611,0.067,0.067,0.0594,0.0591,0.0589,0.0521,0,0,0,0,0,0,0.0518,0.052,0.0506,0.0536,0.0541,0.0525,0.0577,0.0585,0.0588,0.0594,0.062,0.0626,0.0653,0.0638,0.0637,0.0612,0.067,0.0597,0.0593,0.059,0.0525,0.0516,0.0508,0,0,0,0,0,0.0517,0.0485,0.0505,0.0507,0.0525,0.0523,0.0526,0.056,0.0586,0.0572,0.0593,0.0625,0.0615,0.0636,0.0636,0.061,0.0599,0.0594,0.059,0.0529,0.0518,0.0508,0,0,0,0,0,0,0.0449,0.049,0.0512,0.0489,0.0502,0.0535,0.0518,0.0546,0.0552,0.0557,0.0598,0.0603,0.0581,0.0594,0.0617,0.0574,0.0612,0.0607,0.0565,0.0555,0.0546,0.0542,0.0669,0,0,0,0,0,0.0432,0.0429,0.0464,0.044,0.0445,0.048,0.0481,0.0506,0.0521,0.0527,0.0547,0.0559,0.0559,0.0558,0.056,0.0528,0.0534,0.051,0.0502,0.0494,0.0489,0.0472,0.0462,0.0573,0.0573,0.0573,0,0,0.0395,0.0417,0.0412,0.0426,0.044,0.0434,0.0485,0.0477,0.0473,0.0525,0.0511,0.0526,0.0543,0.0519,0.0509,0.0529,0.046,0.0488,0.0482,0.0481,0.0467,0.0456,0.0447,0.057,0.0571,0.0571,0,0,0.0325,0.0342,0.0324,0.0336,0.0356,0.038,0.0375,0.0403,0.0416,0.0403,0.0442,0.0437,0.0436,0.0446,0.0451,0.0385,0.0414,0.0385,0.0337,0.0321,0.0312,0.0304,0.028,0.027,0.038,0.038,0.038,0,0.0277,0.0271,0.031,0.03,0.0305,0.0353,0.0334,0.0344,0.0363,0.0364,0.0387,0.0386,0.0401,0.0379,0.0363,0.0366,0.0361,0.0381,0.031,0.0303,0.0297,0.0273,0.0264,0.0376,0.0377,0.0377,0.0377,0,0.021,0.0206,0.0188,0.0206,0.0209,0.0194,0.023,0.0228,0.0253,0.0274,0.0259,0.0279,0.0285,0.0282,0.0306,0.0263,0.0275,0.0303,0.0342,0.0281,0.026,0.0252,0.0371,0.0372,0.0373,0.0374,0,0,0.0097,0.0138,0.013,0.0139,0.0165,0.0162,0.0149,0.0156,0.0153,0.0165,0.0154,0.0152,0.0179,0.0184,0.021,0.0195,0.014,0.0225,0.0226,0.0207,0.0093,0.0071,0.006,0.016,0.0159,0.0158,0.0091,0,0.0031,0.0013,0.0047,0.002,0.0016,0.0062,0.0051,0.0065,0.0084,0.0083,0.0104,0.0101,0.0137,0.0141,0.0129,0.0149,0.0118,0.0155,0.0149,0.0148,0.0142,0.0049,0.0025,-0.0039,0.0084,0.0082,0.0081,0,-0.0048,-0.0039,-0.0067,-0.0039,-0.004,-0.0051,-0.0041,-0.0043,-0.0026,-0.0011,-0.0005,0.0025,0.0014,0.0052,0.0036,0.006,0.006,0.007,0.0069,0.0068,0.011,0.0044,-0.0058,-0.0068,0.0069,0.007,0.0071,0,-0.013,-0.0125,-0.0141,-0.0134,-0.0102,-0.0111,-0.0098,-0.008,-0.0078,-0.007,-0.0069,-0.0063,-0.006,-0.0057,-0.0026,-0.0,-0.0047,-0.0005,-0.0036,-0.0037,-0.005,-0.005,-0.0155,-0.0047,-0.0047,-0.0047,-0.0047,0,-0.0207,-0.0227,-0.0177,-0.0187,-0.0207,-0.0167,-0.0189,-0.0172,-0.0155,-0.0162,-0.0121,-0.0129,-0.0087,-0.009,-0.0066,-0.0084,-0.0083,-0.0073,-0.0066,-0.0077,-0.0079,-0.0078,-0.0074,-0.0049,-0.0049,-0.0048,-0.0048,0,-0.0303,-0.027,-0.0284,-0.0252,-0.0245,-0.0261,-0.0234,-0.0243,-0.0221,-0.023,-0.023,-0.0195,-0.0197,-0.0165,-0.0161,-0.0145,-0.0175,-0.016,-0.018,-0.0176,-0.0209,-0.0208,-0.0319,-0.0333,-0.0215,-0.0216,-0.0217,0,-0.0355,-0.0369,-0.0338,-0.0339,-0.0328,-0.033,-0.0327,-0.0289,-0.0288,-0.027,-0.0281,-0.0279,-0.0276,-0.0281,-0.0257,-0.0253,-0.0239,-0.0278,-0.0239,-0.0249,-0.0242,-0.0242,-0.0244,-0.0288,-0.0289,-0.029,-0.0291,0,-0.0453,-0.0436,-0.0433,-0.0425,-0.0423,-0.0415,-0.0404,-0.0408,-0.0366,-0.0367,-0.0368,-0.0365,-0.036,-0.036,-0.0351,-0.0339,-0.031,-0.0304,-0.0311,-0.0323,-0.0335,-0.0331,-0.0205,-0.0302,-0.0301,-0.03,-0.0299,-0.0299,-0.0529,-0.0539,-0.0519,-0.0518,-0.0505,-0.0496,-0.0503,-0.0481,-0.0481,-0.0473,-0.045,-0.0455,-0.0438,-0.0424,-0.0415,-0.0419,-0.04,-0.041,-0.0413,-0.0417,-0.0424,-0.0333,-0.0417,-0.0417,-0.0417,-0.0417,-0.0416,0,-0.0626,-0.061,-0.0609,-0.0595,-0.0595,-0.0564,-0.0551,-0.0553,-0.0557,-0.0543,-0.054,-0.0542,-0.0541,-0.0516,-0.0512,-0.052,-0.0507,-0.0521,-0.0521,-0.0519,-0.044,-0.0435,-0.0532,-0.0532,-0.0532,-0.0532,-0.0532,-0.0532,-0.0676,-0.0692,-0.0673,-0.0682,-0.0666,-0.067,-0.0665,-0.0657,-0.0646,-0.0649,-0.0648,-0.0631,-0.0613,-0.0608,-0.0606,-0.0599,-0.06,-0.062,-0.0608,-0.0535,-0.0524,-0.0514,-0.0509,-0.062,-0.062,-0.0686,-0.0687,-0.0687]}]]